Time,TemperatureF,DewpointF,PressureIn,WindDirection,WindDirectionDegrees,WindSpeedMPH,WindSpeedGustMPH,Humidity,HourlyPrecipIn,Conditions,Clouds,dailyrainin,SoftwareType,DateUTC
2013-08-30 00:01:00,64.1,62.6,29.97,SE,141,0.0,0.0,95,0.00,,---,0.00,VWS V14.01,2013-08-30 04:01:00,
2013-08-30 00:06:00,64.2,62.7,29.97,SE,141,0.0,0.0,95,0.00,,---,0.00,VWS V14.01,2013-08-30 04:06:00,
2013-08-30 00:11:00,64.3,62.8,29.97,SE,141,0.0,0.0,95,0.00,,---,0.00,VWS V14.01,2013-08-30 04:11:00,
2013-08-30 00:16:00,64.3,62.8,29.97,SE,141,0.0,0.0,95,0.00,,---,0.00,VWS V14.01,2013-08-30 04:16:00,
2013-08-30 00:21:00,64.3,62.8,29.97,SE,141,0.0,0.0,95,0.00,,---,0.00,VWS V14.01,2013-08-30 04:21:00,
2013-08-30 00:26:00,64.1,62.6,29.97,SE,141,0.0,0.0,95,0.00,,---,0.00,VWS V14.01,2013-08-30 04:26:00,
2013-08-30 00:31:00,64.0,62.5,29.97,SE,141,0.0,0.0,95,0.00,,---,0.00,VWS V14.01,2013-08-30 04:31:00,
2013-08-30 00:36:00,63.8,62.3,29.97,SE,141,0.0,0.0,95,0.00,,---,0.00,VWS V14.01,2013-08-30 04:36:00,
2013-08-30 00:41:00,63.7,62.2,29.97,SE,141,0.0,0.0,95,0.00,,---,0.00,VWS V14.01,2013-08-30 04:41:00,
2013-08-30 00:46:00,63.5,62.0,29.97,SE,141,0.0,0.0,95,0.00,,---,0.00,VWS V14.01,2013-08-30 04:46:00,
2013-08-30 00:51:00,63.4,62.0,29.97,SE,141,0.0,0.0,95,0.00,,---,0.00,VWS V14.01,2013-08-30 04:51:00,
2013-08-30 00:56:00,63.4,62.0,29.96,SE,141,0.0,0.0,95,0.00,,---,0.00,VWS V14.01,2013-08-30 04:56:00,
2013-08-30 01:01:00,63.4,62.0,29.96,SE,141,0.0,0.0,95,0.00,,---,0.00,VWS V14.01,2013-08-30 05:01:00,
2013-08-30 01:06:00,63.3,61.8,29.96,SE,141,0.0,0.0,95,0.00,,---,0.00,VWS V14.01,2013-08-30 05:06:00,
2013-08-30 01:11:00,63.1,61.7,29.96,SE,141,0.0,0.0,95,0.00,,---,0.00,VWS V14.01,2013-08-30 05:11:00,
2013-08-30 01:16:00,62.8,61.3,29.96,SE,141,0.0,0.0,95,0.00,,---,0.00,VWS V14.01,2013-08-30 05:16:00,
2013-08-30 01:21:00,62.7,61.2,29.96,SE,141,0.0,0.0,95,0.00,,---,0.00,VWS V14.01,2013-08-30 05:21:00,
2013-08-30 01:26:00,62.6,61.2,29.96,SE,141,0.0,0.0,95,0.00,,---,0.00,VWS V14.01,2013-08-30 05:26:00,
2013-08-30 01:31:00,62.6,61.2,29.96,SE,141,0.0,0.0,95,0.00,,---,0.00,VWS V14.01,2013-08-30 05:31:00,
2013-08-30 01:36:00,62.5,61.0,29.96,SE,141,0.0,0.0,95,0.00,,---,0.00,VWS V14.01,2013-08-30 05:36:00,
2013-08-30 01:41:00,62.4,61.0,29.95,SE,141,0.0,0.0,95,0.00,,---,0.00,VWS V14.01,2013-08-30 05:41:00,
2013-08-30 01:46:00,62.3,60.8,29.95,SE,141,0.0,0.0,95,0.00,,---,0.00,VWS V14.01,2013-08-30 05:46:00,
2013-08-30 01:51:00,62.2,60.8,29.95,SE,142,0.0,0.0,95,0.00,,---,0.00,VWS V14.01,2013-08-30 05:51:00,
2013-08-30 01:56:00,62.2,60.8,29.95,SE,142,0.0,0.0,95,0.00,,---,0.00,VWS V14.01,2013-08-30 05:56:00,
2013-08-30 02:01:00,62.2,60.8,29.95,SE,142,0.0,0.0,95,0.00,,---,0.00,VWS V14.01,2013-08-30 06:01:00,
2013-08-30 02:06:00,62.2,60.8,29.95,SE,143,0.0,0.0,95,0.00,,---,0.00,VWS V14.01,2013-08-30 06:06:00,
2013-08-30 02:11:00,62.1,60.7,29.94,SE,143,0.0,0.0,95,0.00,,---,0.00,VWS V14.01,2013-08-30 06:11:00,
2013-08-30 02:16:00,61.9,60.5,29.94,SE,143,0.0,0.0,95,0.00,,---,0.00,VWS V14.01,2013-08-30 06:16:00,
2013-08-30 02:21:00,61.8,60.4,29.94,SE,142,0.0,0.0,95,0.00,,---,0.00,VWS V14.01,2013-08-30 06:21:00,
2013-08-30 02:26:00,61.6,60.2,29.94,SE,142,0.0,0.0,95,0.00,,---,0.00,VWS V14.01,2013-08-30 06:26:00,
2013-08-30 02:31:00,61.4,60.0,29.93,SE,142,0.0,0.0,95,0.00,,---,0.00,VWS V14.01,2013-08-30 06:31:00,
2013-08-30 02:36:00,61.3,59.9,29.93,SE,143,0.0,0.0,95,0.00,,---,0.00,VWS V14.01,2013-08-30 06:36:00,
2013-08-30 02:41:00,61.1,59.7,29.93,SE,142,0.0,0.0,95,0.00,,---,0.00,VWS V14.01,2013-08-30 06:41:00,
2013-08-30 02:46:00,61.0,59.6,29.94,SSW,204,0.0,0.0,95,0.00,,---,0.00,VWS V14.01,2013-08-30 06:46:00,
2013-08-30 02:51:00,60.7,59.3,29.93,SSW,204,0.0,0.0,95,0.00,,---,0.00,VWS V14.01,2013-08-30 06:51:00,
2013-08-30 02:56:00,60.5,59.1,29.93,SSW,204,0.0,0.0,95,0.00,,---,0.00,VWS V14.01,2013-08-30 06:56:00,
2013-08-30 03:01:00,60.4,59.0,29.93,SSW,204,0.0,0.0,95,0.00,,---,0.00,VWS V14.01,2013-08-30 07:01:00,
2013-08-30 03:06:00,60.2,58.8,29.93,SSW,204,0.0,0.0,95,0.00,,---,0.00,VWS V14.01,2013-08-30 07:06:00,
2013-08-30 03:11:00,60.0,58.6,29.93,SSW,205,0.0,0.0,95,0.00,,---,0.00,VWS V14.01,2013-08-30 07:11:00,
2013-08-30 03:16:00,59.7,58.3,29.93,SSW,204,0.0,0.0,95,0.00,,---,0.00,VWS V14.01,2013-08-30 07:16:00,
2013-08-30 03:21:00,59.5,58.1,29.92,SSW,204,0.0,0.0,95,0.00,,---,0.00,VWS V14.01,2013-08-30 07:21:00,
2013-08-30 03:26:00,59.2,57.8,29.92,SSW,204,0.0,0.0,95,0.00,,---,0.00,VWS V14.01,2013-08-30 07:26:00,
2013-08-30 03:31:00,59.1,57.7,29.92,SSW,204,0.0,0.0,95,0.00,,---,0.00,VWS V14.01,2013-08-30 07:31:00,
2013-08-30 03:36:00,59.0,57.6,29.92,SSW,204,0.0,0.0,95,0.00,,---,0.00,VWS V14.01,2013-08-30 07:36:00,
2013-08-30 03:41:00,58.8,57.7,29.92,SSW,204,0.0,0.0,96,0.00,,---,0.00,VWS V14.01,2013-08-30 07:41:00,
2013-08-30 03:46:00,58.9,57.8,29.92,SSW,204,0.0,0.0,96,0.00,,---,0.00,VWS V14.01,2013-08-30 07:46:00,
2013-08-30 03:51:00,58.9,57.8,29.92,SSW,201,0.0,0.0,96,0.00,,---,0.00,VWS V14.01,2013-08-30 07:51:00,
2013-08-30 03:56:00,59.2,58.1,29.92,SE,129,1.0,1.0,96,0.00,,---,0.00,VWS V14.01,2013-08-30 07:56:00,
2013-08-30 04:01:00,59.6,58.5,29.92,SE,133,0.0,0.0,96,0.00,,---,0.00,VWS V14.01,2013-08-30 08:01:00,
2013-08-30 04:06:00,59.5,58.4,29.92,SE,132,0.0,0.0,96,0.00,,---,0.00,VWS V14.01,2013-08-30 08:06:00,
2013-08-30 04:11:00,59.2,58.1,29.92,SE,132,0.0,0.0,96,0.00,,---,0.00,VWS V14.01,2013-08-30 08:11:00,
2013-08-30 04:15:00,59.1,58.0,29.92,SE,133,0.0,0.0,96,0.00,,---,0.00,VWS V14.01,2013-08-30 08:15:00,
2013-08-30 04:20:00,58.8,57.7,29.92,SE,132,0.0,0.0,96,0.00,,---,0.00,VWS V14.01,2013-08-30 08:20:00,
2013-08-30 04:25:00,58.5,57.4,29.92,SE,133,0.0,0.0,96,0.00,,---,0.00,VWS V14.01,2013-08-30 08:25:00,
2013-08-30 04:30:00,58.3,57.2,29.92,SE,132,0.0,0.0,96,0.00,,---,0.00,VWS V14.01,2013-08-30 08:30:00,
2013-08-30 04:35:00,58.0,56.9,29.92,SE,132,0.0,0.0,96,0.00,,---,0.00,VWS V14.01,2013-08-30 08:35:00,
2013-08-30 04:40:00,58.0,56.9,29.92,SE,132,0.0,0.0,96,0.00,,---,0.00,VWS V14.01,2013-08-30 08:40:00,
2013-08-30 04:45:00,57.9,56.8,29.92,SE,133,0.0,0.0,96,0.00,,---,0.00,VWS V14.01,2013-08-30 08:45:00,
2013-08-30 04:50:00,57.7,56.6,29.92,SE,132,0.0,0.0,96,0.00,,---,0.00,VWS V14.01,2013-08-30 08:50:00,
2013-08-30 04:55:00,57.6,56.5,29.91,SE,132,0.0,0.0,96,0.00,,---,0.00,VWS V14.01,2013-08-30 08:55:00,
2013-08-30 05:00:00,57.5,56.4,29.91,SE,133,0.0,0.0,96,0.00,,---,0.00,VWS V14.01,2013-08-30 09:00:00,
2013-08-30 05:05:00,57.2,56.1,29.91,SE,132,0.0,0.0,96,0.00,,---,0.00,VWS V14.01,2013-08-30 09:05:00,
2013-08-30 05:10:00,57.2,56.1,29.91,SE,133,0.0,0.0,96,0.00,,---,0.00,VWS V14.01,2013-08-30 09:10:00,
2013-08-30 05:15:00,57.1,56.0,29.91,SE,133,0.0,0.0,96,0.00,,---,0.00,VWS V14.01,2013-08-30 09:15:00,
2013-08-30 05:20:00,57.0,55.9,29.92,SE,133,0.0,0.0,96,0.00,,---,0.00,VWS V14.01,2013-08-30 09:20:00,
2013-08-30 05:25:00,57.0,55.9,29.92,SE,133,0.0,0.0,96,0.00,,---,0.00,VWS V14.01,2013-08-30 09:25:00,
2013-08-30 05:30:00,56.8,55.7,29.92,SE,132,0.0,0.0,96,0.00,,---,0.00,VWS V14.01,2013-08-30 09:30:00,
2013-08-30 05:35:00,56.9,55.8,29.92,SE,132,0.0,0.0,96,0.00,,---,0.00,VWS V14.01,2013-08-30 09:35:00,
2013-08-30 05:40:00,56.9,55.8,29.92,SE,132,0.0,0.0,96,0.00,,---,0.00,VWS V14.01,2013-08-30 09:40:00,
2013-08-30 05:45:00,56.7,55.6,29.92,SE,132,0.0,0.0,96,0.00,,---,0.00,VWS V14.01,2013-08-30 09:45:00,
2013-08-30 05:50:00,56.7,55.6,29.92,SE,132,0.0,0.0,96,0.00,,---,0.00,VWS V14.01,2013-08-30 09:50:00,
2013-08-30 05:55:00,56.7,55.6,29.92,SE,132,0.0,0.0,96,0.00,,---,0.00,VWS V14.01,2013-08-30 09:55:00,
2013-08-30 06:00:00,56.7,55.6,29.92,SE,133,0.0,0.0,96,0.00,,---,0.00,VWS V14.01,2013-08-30 10:00:00,
2013-08-30 06:05:00,56.8,55.7,29.92,SE,133,0.0,0.0,96,0.00,,---,0.00,VWS V14.01,2013-08-30 10:05:00,
2013-08-30 06:10:00,56.8,55.7,29.92,SE,133,0.0,0.0,96,0.00,,---,0.00,VWS V14.01,2013-08-30 10:10:00,
2013-08-30 06:15:00,56.8,55.7,29.92,SE,132,0.0,0.0,96,0.00,,---,0.00,VWS V14.01,2013-08-30 10:15:00,
2013-08-30 06:20:00,56.8,55.7,29.92,SE,133,0.0,0.0,96,0.00,,---,0.00,VWS V14.01,2013-08-30 10:20:00,
2013-08-30 06:25:00,57.0,55.9,29.92,SE,133,1.0,1.0,96,0.00,,---,0.00,VWS V14.01,2013-08-30 10:25:00,
2013-08-30 06:30:00,57.1,56.0,29.93,SE,129,0.0,0.0,96,0.00,,---,0.00,VWS V14.01,2013-08-30 10:30:00,
2013-08-30 06:35:00,57.3,56.5,29.92,SSE,162,1.0,1.0,97,0.00,,---,0.00,VWS V14.01,2013-08-30 10:35:00,
2013-08-30 06:40:00,57.5,56.7,29.92,SSW,198,0.0,0.0,97,0.00,,---,0.00,VWS V14.01,2013-08-30 10:40:00,
2013-08-30 06:45:00,57.5,56.7,29.92,SSW,198,0.0,0.0,97,0.00,,---,0.00,VWS V14.01,2013-08-30 10:45:00,
2013-08-30 06:50:00,57.7,56.9,29.92,SSW,198,0.0,0.0,97,0.01,,---,0.01,VWS V14.01,2013-08-30 10:50:00,
2013-08-30 06:55:00,57.9,57.1,29.92,SSW,198,0.0,1.0,97,0.01,,---,0.01,VWS V14.01,2013-08-30 10:55:00,
2013-08-30 07:00:00,58.3,57.5,29.92,SSW,198,0.0,0.0,97,0.01,,---,0.01,VWS V14.01,2013-08-30 11:00:00,
2013-08-30 07:05:00,58.8,58.0,29.93,SSW,198,0.0,0.0,97,0.01,,---,0.01,VWS V14.01,2013-08-30 11:05:00,
2013-08-30 07:10:00,59.0,58.2,29.93,SSW,198,0.0,0.0,97,0.01,,---,0.01,VWS V14.01,2013-08-30 11:10:00,
2013-08-30 07:15:00,59.3,58.5,29.93,SSW,201,0.0,0.0,97,0.01,,---,0.01,VWS V14.01,2013-08-30 11:15:00,
2013-08-30 07:20:00,59.7,58.8,29.92,SSW,193,0.0,0.0,97,0.01,,---,0.01,VWS V14.01,2013-08-30 11:20:00,
2013-08-30 07:25:00,60.0,59.2,29.92,SSW,193,0.0,0.0,97,0.01,,---,0.01,VWS V14.01,2013-08-30 11:25:00,
2013-08-30 07:30:00,60.2,59.3,29.92,SE,136,0.0,1.0,97,0.01,,---,0.01,VWS V14.01,2013-08-30 11:30:00,
2013-08-30 07:35:00,60.8,60.0,29.92,SE,128,0.0,1.0,97,0.01,,---,0.01,VWS V14.01,2013-08-30 11:35:00,
2013-08-30 07:40:00,61.9,61.0,29.92,SE,126,0.0,1.0,97,0.01,,---,0.01,VWS V14.01,2013-08-30 11:40:00,
2013-08-30 07:45:00,62.6,61.7,29.92,East,86,1.0,2.0,97,0.01,,---,0.01,VWS V14.01,2013-08-30 11:45:00,
2013-08-30 07:50:00,63.1,61.9,29.92,ENE,67,0.0,0.0,96,0.00,,---,0.01,VWS V14.01,2013-08-30 11:50:00,
2013-08-30 07:55:00,63.5,62.3,29.92,ENE,60,1.0,1.0,96,0.00,,---,0.01,VWS V14.01,2013-08-30 11:55:00,
2013-08-30 08:00:00,63.6,62.2,29.92,East,93,1.0,1.0,95,0.00,,---,0.01,VWS V14.01,2013-08-30 12:00:00,
2013-08-30 08:05:00,63.8,62.0,29.92,SW,221,0.0,1.0,94,0.00,,---,0.01,VWS V14.01,2013-08-30 12:05:00,
2013-08-30 08:10:00,63.9,62.1,29.92,SW,221,0.0,0.0,94,0.00,,---,0.01,VWS V14.01,2013-08-30 12:10:00,
2013-08-30 08:15:00,64.2,62.1,29.92,SSW,199,0.0,0.0,93,0.00,,---,0.01,VWS V14.01,2013-08-30 12:15:00,
2013-08-30 08:20:00,64.4,62.0,29.92,SSW,198,0.0,0.0,92,0.00,,---,0.01,VWS V14.01,2013-08-30 12:20:00,
2013-08-30 08:25:00,64.9,62.5,29.91,South,185,0.0,0.0,92,0.00,,---,0.01,VWS V14.01,2013-08-30 12:25:00,
2013-08-30 08:30:00,65.3,62.9,29.91,South,185,0.0,0.0,92,0.00,,---,0.01,VWS V14.01,2013-08-30 12:30:00,
2013-08-30 08:35:00,65.7,63.0,29.91,South,185,0.0,0.0,91,0.00,,---,0.01,VWS V14.01,2013-08-30 12:35:00,
2013-08-30 08:40:00,65.8,62.8,29.90,South,177,0.0,0.0,90,0.00,,---,0.01,VWS V14.01,2013-08-30 12:40:00,
2013-08-30 08:45:00,66.1,63.1,29.90,SE,145,0.0,0.0,90,0.00,,---,0.01,VWS V14.01,2013-08-30 12:45:00,
2013-08-30 08:50:00,66.9,63.9,29.90,ESE,111,2.0,2.0,90,0.00,,---,0.01,VWS V14.01,2013-08-30 12:50:00,
2013-08-30 08:55:00,67.7,64.7,29.90,ESE,102,0.0,0.0,90,0.00,,---,0.01,VWS V14.01,2013-08-30 12:55:00,
2013-08-30 09:00:00,68.4,64.7,29.90,ENE,64,1.0,2.0,88,0.00,,---,0.01,VWS V14.01,2013-08-30 13:00:00,
2013-08-30 09:05:00,68.7,65.0,29.90,ENE,75,3.0,3.0,88,0.00,,---,0.01,VWS V14.01,2013-08-30 13:05:00,
2013-08-30 09:10:00,68.8,64.8,29.90,SE,129,2.0,2.0,87,0.00,,---,0.01,VWS V14.01,2013-08-30 13:10:00,
2013-08-30 09:15:00,69.1,65.7,29.90,SE,134,0.0,0.0,89,0.00,,---,0.01,VWS V14.01,2013-08-30 13:15:00,
2013-08-30 09:20:00,69.8,66.1,29.89,SE,134,1.0,1.0,88,0.00,,---,0.01,VWS V14.01,2013-08-30 13:20:00,
2013-08-30 09:25:00,71.0,66.9,29.89,ESE,108,0.0,0.0,87,0.00,,---,0.01,VWS V14.01,2013-08-30 13:25:00,
2013-08-30 09:30:00,71.6,66.2,29.89,NNW,333,0.0,0.0,83,0.00,,---,0.01,VWS V14.01,2013-08-30 13:30:00,
2013-08-30 09:34:00,71.7,66.3,29.89,SE,131,0.0,0.0,83,0.00,,---,0.01,VWS V14.01,2013-08-30 13:34:00,
2013-08-30 09:39:00,72.0,67.2,29.89,East,91,2.0,2.0,85,0.00,,---,0.01,VWS V14.01,2013-08-30 13:39:00,
2013-08-30 09:44:00,72.4,66.9,29.89,ENE,70,0.0,1.0,83,0.00,,---,0.01,VWS V14.01,2013-08-30 13:44:00,
2013-08-30 09:49:00,72.7,66.9,29.89,ENE,60,1.0,2.0,82,0.00,,---,0.01,VWS V14.01,2013-08-30 13:49:00,
2013-08-30 09:54:00,72.7,66.5,29.88,West,269,1.0,1.0,81,0.00,,---,0.01,VWS V14.01,2013-08-30 13:54:00,
2013-08-30 09:59:00,73.4,66.9,29.88,ENE,61,2.0,2.0,80,0.00,,---,0.01,VWS V14.01,2013-08-30 13:59:00,
2013-08-30 10:04:00,74.0,66.7,29.88,ENE,61,2.0,2.0,78,0.00,,---,0.01,VWS V14.01,2013-08-30 14:04:00,
2013-08-30 10:09:00,74.5,67.9,29.88,NE,56,1.0,1.0,80,0.00,,---,0.01,VWS V14.01,2013-08-30 14:09:00,
2013-08-30 10:14:00,75.3,67.2,29.88,NE,56,5.0,6.0,76,0.00,,---,0.01,VWS V14.01,2013-08-30 14:14:00,
2013-08-30 10:19:00,76.6,68.9,29.88,ENE,72,0.0,0.0,77,0.00,,---,0.01,VWS V14.01,2013-08-30 14:19:00,
2013-08-30 10:24:00,77.5,67.8,29.88,NW,321,1.0,1.0,72,0.00,,---,0.01,VWS V14.01,2013-08-30 14:24:00,
2013-08-30 10:29:00,78.4,68.2,29.87,NNE,30,0.0,1.0,71,0.00,,---,0.01,VWS V14.01,2013-08-30 14:29:00,
2013-08-30 10:34:00,79.0,67.1,29.87,ENE,74,0.0,0.0,67,0.00,,---,0.01,VWS V14.01,2013-08-30 14:34:00,
2013-08-30 10:39:00,79.2,67.3,29.87,WSW,250,1.0,1.0,67,0.00,,---,0.01,VWS V14.01,2013-08-30 14:39:00,
2013-08-30 10:44:00,79.7,65.5,29.87,ENE,70,3.0,3.0,62,0.00,,---,0.01,VWS V14.01,2013-08-30 14:44:00,
2013-08-30 10:49:00,80.3,66.6,29.87,NNW,328,0.0,2.0,63,0.00,,---,0.01,VWS V14.01,2013-08-30 14:49:00,
2013-08-30 10:54:00,80.6,66.4,29.86,NE,43,1.0,1.0,62,0.00,,---,0.01,VWS V14.01,2013-08-30 14:54:00,
2013-08-30 10:59:00,80.4,67.1,29.86,WNW,288,0.0,1.0,64,0.00,,---,0.01,VWS V14.01,2013-08-30 14:59:00,
2013-08-30 11:04:00,80.2,66.5,29.86,WNW,302,0.0,2.0,63,0.00,,---,0.01,VWS V14.01,2013-08-30 15:04:00,
2013-08-30 11:09:00,80.1,66.8,29.86,North,356,1.0,2.0,64,0.00,,---,0.01,VWS V14.01,2013-08-30 15:09:00,
2013-08-30 11:14:00,79.9,66.2,29.86,SW,235,0.0,4.0,63,0.00,,---,0.01,VWS V14.01,2013-08-30 15:14:00,
2013-08-30 11:19:00,79.6,66.8,29.85,NNW,338,0.0,0.0,65,0.00,,---,0.01,VWS V14.01,2013-08-30 15:19:00,
2013-08-30 11:24:00,79.2,65.5,29.85,WSW,252,0.0,1.0,63,0.00,,---,0.01,VWS V14.01,2013-08-30 15:24:00,
2013-08-30 11:29:00,79.0,66.7,29.85,WSW,251,0.0,1.0,66,0.00,,---,0.01,VWS V14.01,2013-08-30 15:29:00,
2013-08-30 11:34:00,79.5,67.2,29.85,WSW,248,1.0,1.0,66,0.00,,---,0.01,VWS V14.01,2013-08-30 15:34:00,
2013-08-30 11:39:00,79.2,68.2,29.84,NE,46,0.0,3.0,69,0.00,,---,0.01,VWS V14.01,2013-08-30 15:39:00,
2013-08-30 11:44:00,80.1,69.0,29.84,NE,53,0.0,1.0,69,0.00,,---,0.01,VWS V14.01,2013-08-30 15:44:00,
2013-08-30 11:49:00,81.3,68.4,29.84,NE,52,4.0,5.0,65,0.00,,---,0.01,VWS V14.01,2013-08-30 15:49:00,
2013-08-30 11:54:00,81.3,67.5,29.84,SE,130,1.0,1.0,63,0.00,,---,0.01,VWS V14.01,2013-08-30 15:54:00,
2013-08-30 11:59:00,81.8,67.1,29.84,ESE,103,1.0,3.0,61,0.00,,---,0.01,VWS V14.01,2013-08-30 15:59:00,
2013-08-30 12:04:00,81.5,66.3,29.83,SE,131,0.0,1.0,60,0.00,,---,0.01,VWS V14.01,2013-08-30 16:04:00,
2013-08-30 12:09:00,82.2,66.9,29.83,SSE,148,0.0,0.0,60,0.00,,---,0.01,VWS V14.01,2013-08-30 16:09:00,
2013-08-30 12:14:00,83.0,67.2,29.83,NW,325,1.0,2.0,59,0.00,,---,0.01,VWS V14.01,2013-08-30 16:14:00,
2013-08-30 12:19:00,83.5,67.7,29.83,North,6,0.0,3.0,59,0.00,,---,0.01,VWS V14.01,2013-08-30 16:19:00,
2013-08-30 12:24:00,83.6,66.3,29.83,ESE,117,2.0,2.0,56,0.00,,---,0.01,VWS V14.01,2013-08-30 16:24:00,
2013-08-30 12:29:00,83.4,66.6,29.82,ENE,78,3.0,3.0,57,0.00,,---,0.01,VWS V14.01,2013-08-30 16:29:00,
2013-08-30 12:34:00,84.0,66.6,29.82,NNW,330,0.0,2.0,56,0.00,,---,0.01,VWS V14.01,2013-08-30 16:34:00,
2013-08-30 12:39:00,84.5,67.1,29.82,NE,46,1.0,2.0,56,0.00,,---,0.01,VWS V14.01,2013-08-30 16:39:00,
2013-08-30 12:44:00,84.9,66.4,29.82,NNE,13,1.0,2.0,54,0.00,,---,0.01,VWS V14.01,2013-08-30 16:44:00,
2013-08-30 12:49:00,84.2,66.8,29.82,NNE,19,2.0,2.0,56,0.00,,---,0.01,VWS V14.01,2013-08-30 16:49:00,
2013-08-30 12:54:00,84.3,66.4,29.81,ENE,58,1.0,1.0,55,0.00,,---,0.01,VWS V14.01,2013-08-30 16:54:00,
2013-08-30 12:59:00,84.1,66.7,29.82,SW,229,2.0,3.0,56,0.00,,---,0.01,VWS V14.01,2013-08-30 16:59:00,
2013-08-30 13:04:00,83.1,65.3,29.81,SW,219,0.0,1.0,55,0.00,,---,0.01,VWS V14.01,2013-08-30 17:04:00,
2013-08-30 13:09:00,83.2,66.9,29.82,SE,126,3.0,5.0,58,0.00,,---,0.01,VWS V14.01,2013-08-30 17:09:00,
2013-08-30 13:14:00,83.7,66.9,29.81,NNW,333,1.0,2.0,57,0.00,,---,0.01,VWS V14.01,2013-08-30 17:14:00,
2013-08-30 13:19:00,83.7,65.3,29.81,NW,310,0.0,1.0,54,0.00,,---,0.01,VWS V14.01,2013-08-30 17:19:00,
2013-08-30 13:24:00,83.1,66.3,29.81,ENE,61,2.0,2.0,57,0.00,,---,0.01,VWS V14.01,2013-08-30 17:24:00,
2013-08-30 13:29:00,83.5,66.7,29.81,ENE,61,1.0,1.0,57,0.00,,---,0.01,VWS V14.01,2013-08-30 17:29:00,
2013-08-30 13:34:00,83.6,66.3,29.81,NNW,328,1.0,3.0,56,0.00,,---,0.01,VWS V14.01,2013-08-30 17:34:00,
2013-08-30 13:39:00,83.3,66.5,29.81,West,280,1.0,1.0,57,0.00,,---,0.01,VWS V14.01,2013-08-30 17:39:00,
2013-08-30 13:44:00,83.0,66.2,29.80,NE,34,1.0,2.0,57,0.00,,---,0.01,VWS V14.01,2013-08-30 17:44:00,
2013-08-30 13:49:00,82.2,63.9,29.80,NNW,333,1.0,1.0,54,0.00,,---,0.01,VWS V14.01,2013-08-30 17:49:00,
2013-08-30 13:54:00,81.9,64.7,29.80,ESE,112,1.0,2.0,56,0.00,,---,0.01,VWS V14.01,2013-08-30 17:54:00,
2013-08-30 13:59:00,82.4,65.1,29.80,WSW,256,2.0,2.0,56,0.00,,---,0.01,VWS V14.01,2013-08-30 17:59:00,
2013-08-30 14:04:00,83.1,64.2,29.80,SSW,211,4.0,9.0,53,0.00,,---,0.01,VWS V14.01,2013-08-30 18:04:00,
2013-08-30 14:09:00,82.8,63.9,29.79,SE,136,3.0,5.0,53,0.00,,---,0.01,VWS V14.01,2013-08-30 18:09:00,
2013-08-30 14:14:00,83.5,65.1,29.79,NNW,333,2.0,3.0,54,0.00,,---,0.01,VWS V14.01,2013-08-30 18:14:00,
2013-08-30 14:19:00,83.7,64.2,29.79,ENE,78,1.0,1.0,52,0.00,,---,0.01,VWS V14.01,2013-08-30 18:19:00,
2013-08-30 14:24:00,83.1,65.3,29.79,East,96,1.0,2.0,55,0.00,,---,0.01,VWS V14.01,2013-08-30 18:24:00,
2013-08-30 14:29:00,82.5,64.7,29.78,ESE,108,2.0,5.0,55,0.00,,---,0.01,VWS V14.01,2013-08-30 18:29:00,
2013-08-30 14:34:00,82.3,64.0,29.78,WNW,285,0.0,0.0,54,0.00,,---,0.01,VWS V14.01,2013-08-30 18:34:00,
2013-08-30 14:39:00,83.2,62.7,29.78,West,281,2.0,6.0,50,0.00,,---,0.01,VWS V14.01,2013-08-30 18:39:00,
2013-08-30 14:44:00,83.9,64.9,29.78,North,350,2.0,2.0,53,0.00,,---,0.01,VWS V14.01,2013-08-30 18:44:00,
2013-08-30 14:49:00,85.2,65.6,29.78,WNW,294,2.0,2.0,52,0.00,,---,0.01,VWS V14.01,2013-08-30 18:49:00,
2013-08-30 14:54:00,85.6,64.8,29.78,East,88,1.0,1.0,50,0.00,,---,0.01,VWS V14.01,2013-08-30 18:54:00,
2013-08-30 14:59:00,85.2,62.7,29.78,South,172,0.0,1.0,47,0.00,,---,0.01,VWS V14.01,2013-08-30 18:59:00,
2013-08-30 15:04:00,84.4,62.6,29.78,ESE,103,1.0,2.0,48,0.00,,---,0.01,VWS V14.01,2013-08-30 19:04:00,
2013-08-30 15:09:00,84.3,62.5,29.78,NNW,333,1.0,2.0,48,0.00,,---,0.01,VWS V14.01,2013-08-30 19:09:00,
2013-08-30 15:14:00,84.4,61.4,29.78,WSW,253,3.0,3.0,46,0.00,,---,0.01,VWS V14.01,2013-08-30 19:14:00,
2013-08-30 15:19:00,84.7,62.3,29.77,West,281,1.0,1.0,47,0.00,,---,0.01,VWS V14.01,2013-08-30 19:19:00,
2013-08-30 15:24:00,84.9,61.8,29.77,NE,52,1.0,1.0,46,0.00,,---,0.01,VWS V14.01,2013-08-30 19:24:00,
2013-08-30 15:29:00,85.4,62.3,29.77,West,281,2.0,2.0,46,0.00,,---,0.01,VWS V14.01,2013-08-30 19:29:00,
2013-08-30 15:34:00,85.5,63.6,29.77,WNW,297,1.0,1.0,48,0.00,,---,0.01,VWS V14.01,2013-08-30 19:34:00,
2013-08-30 15:39:00,85.7,62.6,29.77,West,262,2.0,3.0,46,0.00,,---,0.01,VWS V14.01,2013-08-30 19:39:00,
2013-08-30 15:44:00,86.0,64.0,29.76,WSW,245,1.0,2.0,48,0.00,,---,0.01,VWS V14.01,2013-08-30 19:44:00,
2013-08-30 15:48:00,86.0,63.4,29.76,West,265,1.0,1.0,47,0.00,,---,0.01,VWS V14.01,2013-08-30 19:48:00,
2013-08-30 15:53:00,86.2,63.0,29.76,West,263,1.0,2.0,46,0.00,,---,0.01,VWS V14.01,2013-08-30 19:53:00,
2013-08-30 15:58:00,86.2,62.4,29.76,SW,235,1.0,1.0,45,0.00,,---,0.01,VWS V14.01,2013-08-30 19:58:00,
2013-08-30 16:03:00,85.5,64.8,29.76,WNW,285,1.0,1.0,50,0.00,,---,0.01,VWS V14.01,2013-08-30 20:03:00,
2013-08-30 16:08:00,85.4,65.8,29.76,SSW,201,0.0,0.0,52,0.00,,---,0.01,VWS V14.01,2013-08-30 20:08:00,
2013-08-30 16:13:00,85.1,63.8,29.76,West,279,0.0,0.0,49,0.00,,---,0.01,VWS V14.01,2013-08-30 20:13:00,
2013-08-30 16:18:00,84.8,63.5,29.76,ESE,114,0.0,0.0,49,0.00,,---,0.01,VWS V14.01,2013-08-30 20:18:00,
2013-08-30 16:23:00,84.4,62.6,29.76,NE,46,1.0,2.0,48,0.00,,---,0.01,VWS V14.01,2013-08-30 20:23:00,
2013-08-30 16:28:00,84.2,64.7,29.76,West,275,3.0,3.0,52,0.00,,---,0.01,VWS V14.01,2013-08-30 20:28:00,
2013-08-30 16:33:00,83.8,64.3,29.75,WSW,238,2.0,2.0,52,0.00,,---,0.01,VWS V14.01,2013-08-30 20:33:00,
2013-08-30 16:38:00,84.3,64.8,29.75,East,79,0.0,0.0,52,0.00,,---,0.01,VWS V14.01,2013-08-30 20:38:00,
2013-08-30 16:43:00,84.8,63.5,29.75,SW,235,4.0,4.0,49,0.00,,---,0.01,VWS V14.01,2013-08-30 20:43:00,
2013-08-30 16:48:00,84.4,65.4,29.75,SSW,212,1.0,2.0,53,0.00,,---,0.01,VWS V14.01,2013-08-30 20:48:00,
2013-08-30 16:53:00,84.4,65.9,29.75,WNW,291,1.0,4.0,54,0.00,,---,0.01,VWS V14.01,2013-08-30 20:53:00,
2013-08-30 16:58:00,84.4,64.3,29.75,SW,221,1.0,2.0,51,0.00,,---,0.01,VWS V14.01,2013-08-30 20:58:00,
2013-08-30 17:03:00,84.5,65.0,29.75,SW,221,0.0,1.0,52,0.00,,---,0.01,VWS V14.01,2013-08-30 21:03:00,
2013-08-30 17:08:00,84.5,64.4,29.75,North,9,1.0,2.0,51,0.00,,---,0.01,VWS V14.01,2013-08-30 21:08:00,
2013-08-30 17:13:00,83.6,65.2,29.75,NW,306,0.0,0.0,54,0.00,,---,0.01,VWS V14.01,2013-08-30 21:13:00,
2013-08-30 17:18:00,83.4,65.0,29.75,NNE,19,0.0,1.0,54,0.00,,---,0.01,VWS V14.01,2013-08-30 21:18:00,
2013-08-30 17:23:00,82.9,66.6,29.75,NNE,19,0.0,0.0,58,0.00,,---,0.01,VWS V14.01,2013-08-30 21:23:00,
2013-08-30 17:28:00,82.8,66.0,29.75,NNE,19,0.0,0.0,57,0.00,,---,0.01,VWS V14.01,2013-08-30 21:28:00,
2013-08-30 17:33:00,82.6,69.2,29.75,NNE,13,1.0,1.0,64,0.00,,---,0.01,VWS V14.01,2013-08-30 21:33:00,
2013-08-30 17:38:00,82.2,66.9,29.75,NNE,30,1.0,1.0,60,0.00,,---,0.01,VWS V14.01,2013-08-30 21:38:00,
2013-08-30 17:43:00,81.7,66.9,29.75,ENE,74,1.0,1.0,61,0.00,,---,0.01,VWS V14.01,2013-08-30 21:43:00,
2013-08-30 17:48:00,81.3,69.7,29.75,NNE,24,0.0,1.0,68,0.00,,---,0.01,VWS V14.01,2013-08-30 21:48:00,
2013-08-30 17:53:00,80.7,69.6,29.75,NNE,25,0.0,1.0,69,0.00,,---,0.01,VWS V14.01,2013-08-30 21:53:00,
2013-08-30 17:58:00,80.2,69.9,29.75,NNE,24,0.0,0.0,71,0.00,,---,0.01,VWS V14.01,2013-08-30 21:58:00,
2013-08-30 18:03:00,79.4,70.4,29.75,NNE,25,0.0,0.0,74,0.00,,---,0.01,VWS V14.01,2013-08-30 22:03:00,
2013-08-30 18:08:00,79.2,71.0,29.75,NNE,25,0.0,0.0,76,0.00,,---,0.01,VWS V14.01,2013-08-30 22:08:00,
2013-08-30 18:13:00,78.8,71.4,29.75,NNE,24,0.0,0.0,78,0.00,,---,0.01,VWS V14.01,2013-08-30 22:13:00,
2013-08-30 18:18:00,78.4,71.0,29.74,NNE,24,0.0,0.0,78,0.00,,---,0.01,VWS V14.01,2013-08-30 22:18:00,
2013-08-30 18:23:00,77.8,71.1,29.74,NNE,25,0.0,0.0,80,0.00,,---,0.01,VWS V14.01,2013-08-30 22:23:00,
2013-08-30 18:28:00,77.0,70.7,29.74,NNE,24,0.0,0.0,81,0.00,,---,0.01,VWS V14.01,2013-08-30 22:28:00,
2013-08-30 18:33:00,76.4,70.1,29.74,North,1,1.0,1.0,81,0.00,,---,0.01,VWS V14.01,2013-08-30 22:33:00,
2013-08-30 18:38:00,75.9,70.4,29.74,North,355,0.0,0.0,83,0.00,,---,0.01,VWS V14.01,2013-08-30 22:38:00,
2013-08-30 18:43:00,75.7,69.8,29.74,North,356,0.0,0.0,82,0.00,,---,0.01,VWS V14.01,2013-08-30 22:43:00,
2013-08-30 18:48:00,75.2,69.7,29.74,North,356,0.0,0.0,83,0.00,,---,0.01,VWS V14.01,2013-08-30 22:48:00,
2013-08-30 18:53:00,74.8,69.3,29.74,North,356,0.0,0.0,83,0.00,,---,0.01,VWS V14.01,2013-08-30 22:53:00,
2013-08-30 18:58:00,74.5,69.0,29.74,North,355,0.0,0.0,83,0.00,,---,0.01,VWS V14.01,2013-08-30 22:58:00,
2013-08-30 19:03:00,74.3,69.2,29.73,NE,46,1.0,1.0,84,0.00,,---,0.01,VWS V14.01,2013-08-30 23:03:00,
2013-08-30 19:08:00,74.0,69.2,29.73,West,281,0.0,0.0,85,0.00,,---,0.01,VWS V14.01,2013-08-30 23:08:00,
2013-08-30 19:13:00,73.6,68.8,29.74,West,280,0.0,1.0,85,0.00,,---,0.01,VWS V14.01,2013-08-30 23:13:00,
2013-08-30 19:18:00,73.3,68.9,29.74,West,280,0.0,1.0,86,0.00,,---,0.01,VWS V14.01,2013-08-30 23:18:00,
2013-08-30 19:23:00,73.0,68.6,29.74,West,280,0.0,0.0,86,0.00,,---,0.01,VWS V14.01,2013-08-30 23:23:00,
2013-08-30 19:28:00,72.6,68.5,29.74,South,191,1.0,2.0,87,0.00,,---,0.01,VWS V14.01,2013-08-30 23:28:00,
2013-08-30 19:33:00,72.3,68.2,29.75,SSW,195,0.0,0.0,87,0.00,,---,0.01,VWS V14.01,2013-08-30 23:33:00,
2013-08-30 19:41:00,71.9,67.8,29.75,SSW,198,0.0,0.0,87,0.00,,---,0.01,VWS V14.01,2013-08-30 23:41:00,
2013-08-30 19:42:00,71.9,68.2,29.75,SSW,199,0.0,0.0,88,0.00,,---,0.01,VWS V14.01,2013-08-30 23:42:00,
2013-08-30 19:43:00,71.9,68.2,29.75,SSW,198,0.0,0.0,88,0.00,,---,0.01,VWS V14.01,2013-08-30 23:43:00,
2013-08-30 19:44:00,71.8,68.1,29.75,SSW,198,0.0,0.0,88,0.00,,---,0.01,VWS V14.01,2013-08-30 23:44:00,
2013-08-30 19:45:00,71.8,68.1,29.75,SSW,198,0.0,0.0,88,0.00,,---,0.01,VWS V14.01,2013-08-30 23:45:00,
2013-08-30 19:46:00,71.8,68.1,29.75,SSW,198,0.0,0.0,88,0.00,,---,0.01,VWS V14.01,2013-08-30 23:46:00,
2013-08-30 19:47:00,71.8,68.1,29.75,SSW,198,0.0,0.0,88,0.00,,---,0.01,VWS V14.01,2013-08-30 23:47:00,
2013-08-30 19:48:00,71.8,68.1,29.75,SSW,199,0.0,0.0,88,0.00,,---,0.01,VWS V14.01,2013-08-30 23:48:00,
2013-08-30 19:49:00,71.7,67.6,29.75,SSW,198,0.0,0.0,87,0.00,,---,0.01,VWS V14.01,2013-08-30 23:49:00,
2013-08-30 19:50:00,71.7,68.0,29.75,SSW,199,0.0,0.0,88,0.00,,---,0.01,VWS V14.01,2013-08-30 23:50:00,
2013-08-30 19:51:00,71.7,68.0,29.75,SSW,198,0.0,0.0,88,0.00,,---,0.01,VWS V14.01,2013-08-30 23:51:00,
2013-08-30 20:00:00,71.1,67.4,29.75,SSW,207,0.0,0.0,88,0.00,,---,0.01,VWS V14.01,2013-08-31 00:00:00,
2013-08-30 20:05:00,71.0,67.6,29.75,SSW,207,0.0,0.0,89,0.00,,---,0.01,VWS V14.01,2013-08-31 00:05:00,
2013-08-30 20:10:00,70.8,67.4,29.75,SSW,207,0.0,0.0,89,0.00,,---,0.01,VWS V14.01,2013-08-31 00:10:00,
2013-08-30 20:15:00,70.6,67.5,29.75,SSW,207,0.0,0.0,90,0.00,,---,0.01,VWS V14.01,2013-08-31 00:15:00,
2013-08-30 20:20:00,70.5,67.4,29.75,SSW,207,0.0,0.0,90,0.00,,---,0.01,VWS V14.01,2013-08-31 00:20:00,
2013-08-30 20:25:00,70.4,67.3,29.75,SSW,207,0.0,0.0,90,0.00,,---,0.01,VWS V14.01,2013-08-31 00:25:00,
2013-08-30 20:30:00,70.2,67.1,29.75,SSW,207,0.0,0.0,90,0.00,,---,0.01,VWS V14.01,2013-08-31 00:30:00,
2013-08-30 20:35:00,70.0,66.9,29.75,SSW,207,0.0,0.0,90,0.00,,---,0.01,VWS V14.01,2013-08-31 00:35:00,
2013-08-30 20:40:00,69.9,66.8,29.75,WSW,237,0.0,0.0,90,0.00,,---,0.01,VWS V14.01,2013-08-31 00:40:00,
2013-08-30 20:45:00,69.9,66.8,29.75,WSW,238,0.0,0.0,90,0.00,,---,0.01,VWS V14.01,2013-08-31 00:45:00,
2013-08-30 20:50:00,69.9,66.8,29.76,WSW,249,1.0,1.0,90,0.00,,---,0.01,VWS V14.01,2013-08-31 00:50:00,
2013-08-30 20:55:00,69.6,66.9,29.75,SSW,193,0.0,0.0,91,0.00,,---,0.01,VWS V14.01,2013-08-31 00:55:00,
2013-08-30 21:00:00,69.5,66.8,29.75,SSW,193,0.0,0.0,91,0.00,,---,0.01,VWS V14.01,2013-08-31 01:00:00,
2013-08-30 21:05:00,69.2,66.8,29.75,SSW,193,0.0,0.0,92,0.00,,---,0.01,VWS V14.01,2013-08-31 01:05:00,
2013-08-30 21:10:00,69.0,66.6,29.75,SSW,193,0.0,0.0,92,0.00,,---,0.01,VWS V14.01,2013-08-31 01:10:00,
2013-08-30 21:15:00,68.8,66.4,29.75,SSW,193,0.0,0.0,92,0.00,,---,0.01,VWS V14.01,2013-08-31 01:15:00,
2013-08-30 21:20:00,68.7,66.3,29.75,SSW,193,0.0,0.0,92,0.00,,---,0.01,VWS V14.01,2013-08-31 01:20:00,
2013-08-30 21:25:00,68.5,66.1,29.75,SSW,193,0.0,0.0,92,0.00,,---,0.01,VWS V14.01,2013-08-31 01:25:00,
2013-08-30 21:30:00,68.3,65.9,29.75,SW,229,1.0,1.0,92,0.00,,---,0.01,VWS V14.01,2013-08-31 01:30:00,
2013-08-30 21:35:00,68.3,65.9,29.75,WSW,256,0.0,0.0,92,0.00,,---,0.01,VWS V14.01,2013-08-31 01:35:00,
2013-08-30 21:40:00,68.1,65.7,29.75,WSW,255,0.0,0.0,92,0.00,,---,0.01,VWS V14.01,2013-08-31 01:40:00,
2013-08-30 21:45:00,67.9,65.5,29.75,WSW,256,0.0,0.0,92,0.00,,---,0.01,VWS V14.01,2013-08-31 01:45:00,
2013-08-30 21:50:00,67.9,65.8,29.74,WSW,256,0.0,1.0,93,0.00,,---,0.01,VWS V14.01,2013-08-31 01:50:00,
2013-08-30 21:55:00,67.6,65.5,29.74,WSW,256,0.0,0.0,93,0.00,,---,0.01,VWS V14.01,2013-08-31 01:55:00,
2013-08-30 22:00:00,67.3,65.2,29.75,West,270,0.0,1.0,93,0.00,,---,0.01,VWS V14.01,2013-08-31 02:00:00,
2013-08-30 22:05:00,67.1,65.0,29.75,West,270,0.0,0.0,93,0.00,,---,0.01,VWS V14.01,2013-08-31 02:05:00,
2013-08-30 22:10:00,66.8,64.7,29.75,West,270,0.0,0.0,93,0.00,,---,0.01,VWS V14.01,2013-08-31 02:10:00,
2013-08-30 22:15:00,66.6,64.5,29.75,West,270,0.0,0.0,93,0.00,,---,0.01,VWS V14.01,2013-08-31 02:15:00,
2013-08-30 22:20:00,66.4,64.6,29.75,West,270,0.0,1.0,94,0.00,,---,0.01,VWS V14.01,2013-08-31 02:20:00,
2013-08-30 22:25:00,66.2,64.4,29.75,West,270,2.0,2.0,94,0.00,,---,0.01,VWS V14.01,2013-08-31 02:25:00,
2013-08-30 22:30:00,66.1,64.3,29.75,West,270,0.0,0.0,94,0.00,,---,0.01,VWS V14.01,2013-08-31 02:30:00,
2013-08-30 22:35:00,66.0,64.2,29.75,West,270,0.0,0.0,94,0.00,,---,0.01,VWS V14.01,2013-08-31 02:35:00,
2013-08-30 22:40:00,65.8,64.0,29.75,West,270,0.0,1.0,94,0.00,,---,0.01,VWS V14.01,2013-08-31 02:40:00,
2013-08-30 22:45:00,65.8,64.0,29.75,West,270,0.0,0.0,94,0.00,,---,0.01,VWS V14.01,2013-08-31 02:45:00,
2013-08-30 22:50:00,65.7,63.9,29.74,West,270,0.0,0.0,94,0.00,,---,0.01,VWS V14.01,2013-08-31 02:50:00,
2013-08-30 22:55:00,65.7,63.9,29.74,West,269,0.0,0.0,94,0.00,,---,0.01,VWS V14.01,2013-08-31 02:55:00,
2013-08-30 23:00:00,65.7,63.9,29.74,West,270,0.0,0.0,94,0.00,,---,0.01,VWS V14.01,2013-08-31 03:00:00,
2013-08-30 23:05:00,65.6,63.8,29.74,West,270,0.0,0.0,94,0.00,,---,0.01,VWS V14.01,2013-08-31 03:05:00,
2013-08-30 23:10:00,65.6,63.8,29.74,West,268,0.0,0.0,94,0.00,,---,0.01,VWS V14.01,2013-08-31 03:10:00,
2013-08-30 23:15:00,65.6,63.8,29.74,West,270,0.0,0.0,94,0.00,,---,0.01,VWS V14.01,2013-08-31 03:15:00,
2013-08-30 23:20:00,65.6,63.8,29.73,West,270,0.0,0.0,94,0.00,,---,0.01,VWS V14.01,2013-08-31 03:20:00,
2013-08-30 23:25:00,65.5,63.7,29.74,West,270,0.0,0.0,94,0.00,,---,0.01,VWS V14.01,2013-08-31 03:25:00,
2013-08-30 23:30:00,65.6,63.8,29.74,West,270,0.0,0.0,94,0.00,,---,0.01,VWS V14.01,2013-08-31 03:30:00,
2013-08-30 23:35:00,65.5,63.7,29.73,West,270,0.0,0.0,94,0.00,,---,0.01,VWS V14.01,2013-08-31 03:35:00,
2013-08-30 23:40:00,65.4,63.6,29.73,West,270,0.0,0.0,94,0.00,,---,0.01,VWS V14.01,2013-08-31 03:40:00,
2013-08-30 23:45:00,65.4,63.6,29.73,West,270,0.0,0.0,94,0.00,,---,0.01,VWS V14.01,2013-08-31 03:45:00,
2013-08-30 23:50:00,65.4,63.6,29.74,West,266,0.0,0.0,94,0.00,,---,0.01,VWS V14.01,2013-08-31 03:50:00,
2013-08-30 23:55:00,65.4,63.6,29.74,West,271,0.0,1.0,94,0.00,,---,0.01,VWS V14.01,2013-08-31 03:55:00,